| time (UTC) | temp C | wind direction | speed KPH | gust KPH | rain 1hr cm | rain 24hr cm | rain mn cm | humidity % | barometer mb |
| 20260503211010 | 30 | 96 | 1.6 | 6.4 | 0.00 | 0.00 | 0.00 | 24 | 1009.5 |
| 20260503210506 | 30 | 75 | 1.6 | 4.8 | 0.00 | 0.00 | 0.00 | 25 | 1009.6 |
| 20260503210007 | 30 | 104 | 1.6 | 6.4 | 0.00 | 0.00 | 0.00 | 26 | 1009.6 |
| 20260503205508 | 30 | 80 | 1.6 | 6.4 | 0.00 | 0.00 | 0.00 | 24 | 1009.6 |
| 20260503205010 | 30 | 107 | 1.6 | 6.4 | 0.00 | 0.00 | 0.00 | 25 | 1009.7 |
| 20260503204526 | 30 | 120 | 1.6 | 6.4 | 0.00 | 0.00 | 0.00 | 28 | 1009.6 |
| 20260503204008 | 30 | 97 | 1.6 | 6.4 | 0.00 | 0.00 | 0.00 | 25 | 1009.7 |
| 20260503203510 | 30 | 75 | 0.0 | 6.4 | 0.00 | 0.00 | 0.00 | 27 | 1009.8 |
| 20260503203025 | 29 | 136 | 1.6 | 4.8 | 0.00 | 0.00 | 0.00 | 28 | 1009.8 |
| 20260503202510 | 29 | 90 | 1.6 | 6.4 | 0.00 | 0.00 | 0.00 | 25 | 1009.9 |
| 20260503202010 | 28 | 97 | 1.6 | 4.8 | 0.00 | 0.00 | 0.00 | 28 | 1009.9 |
| 20260503201527 | 28 | 80 | 0.0 | 3.2 | 0.00 | 0.00 | 0.00 | 32 | 1009.9 |
| 20260503201007 | 28 | 44 | 0.0 | 4.8 | 0.00 | 0.00 | 0.00 | 33 | 1010.0 |
| 20260503200516 | 28 | 80 | 1.6 | 4.8 | 0.00 | 0.00 | 0.00 | 30 | 1010.1 |
| 20260503200024 | 29 | 103 | 1.6 | 3.2 | 0.00 | 0.00 | 0.00 | 28 | 1010.1 |
| 20260503195511 | 28 | 59 | 1.6 | 3.2 | 0.00 | 0.00 | 0.00 | 28 | 1010.2 |
| 20260503195018 | 28 | 73 | 1.6 | 3.2 | 0.00 | 0.00 | 0.00 | 27 | 1010.3 |
| 20260503194522 | 27 | 62 | 0.0 | 3.2 | 0.00 | 0.00 | 0.00 | 29 | 1010.4 |
| 20260503194009 | 27 | 74 | 0.0 | 3.2 | 0.00 | 0.00 | 0.00 | 31 | 1010.6 |
| 20260503193507 | 26 | 61 | 0.0 | 3.2 | 0.00 | 0.00 | 0.00 | 36 | 1010.6 |
| 20260503193026 | 26 | 63 | 0.0 | 3.2 | 0.00 | 0.00 | 0.00 | 35 | 1010.6 |
| 20260503192506 | 26 | 21 | 1.6 | 3.2 | 0.00 | 0.00 | 0.00 | 40 | 1010.7 |
| 20260503192014 | 26 | 105 | 0.0 | 4.8 | 0.00 | 0.00 | 0.00 | 41 | 1010.7 |
| 20260503191530 | 26 | 107 | 0.0 | 4.8 | 0.00 | 0.00 | 0.00 | 43 | 1010.8 |
| 20260503191010 | 26 | 67 | 0.0 | 3.2 | 0.00 | 0.00 | 0.00 | 38 | 1010.9 |
| 20260503190511 | 25 | 67 | 0.0 | 3.2 | 0.00 | 0.00 | 0.00 | 38 | 1010.9 |
| 20260503190027 | 25 | 67 | 0.0 | 3.2 | 0.00 | 0.00 | 0.00 | 42 | 1011.0 |
| 20260503185510 | 25 | 94 | 1.6 | 4.8 | 0.00 | 0.00 | 0.00 | 45 | 1011.1 |
| 20260503185006 | 25 | 86 | 1.6 | 4.8 | 0.00 | 0.00 | 0.00 | 41 | 1011.1 |
| 20260503184524 | 24 | 81 | 0.0 | 3.2 | 0.00 | 0.00 | 0.00 | 43 | 1011.1 |
| 20260503184006 | 23 | 49 | 0.0 | 4.8 | 0.00 | 0.00 | 0.00 | 43 | 1011.2 |
| 20260503183510 | 23 | 85 | 1.6 | 4.8 | 0.00 | 0.00 | 0.00 | 44 | 1011.2 |
| 20260503183025 | 23 | 75 | 0.0 | 4.8 | 0.00 | 0.00 | 0.00 | 45 | 1011.3 |
| 20260503182507 | 23 | 102 | 1.6 | 3.2 | 0.00 | 0.00 | 0.00 | 47 | 1011.4 |
| 20260503182014 | 23 | 72 | 0.0 | 3.2 | 0.00 | 0.00 | 0.00 | 45 | 1011.4 |
| 20260503181522 | 22 | 58 | 0.0 | 4.8 | 0.00 | 0.00 | 0.00 | 46 | 1011.5 |
| 20260503181007 | 22 | 94 | 1.6 | 4.8 | 0.00 | 0.00 | 0.00 | 47 | 1011.5 |
| 20260503180512 | 22 | 63 | 1.6 | 4.8 | 0.00 | 0.00 | 0.00 | 48 | 1011.6 |
| 20260503180028 | 22 | 49 | 1.6 | 4.8 | 0.00 | 0.00 | 0.00 | 50 | 1011.6 |
| 20260503175511 | 21 | 52 | 1.6 | 4.8 | 0.00 | 0.00 | 0.00 | 50 | 1011.7 |
| 20260503175011 | 21 | 57 | 1.6 | 6.4 | 0.00 | 0.00 | 0.00 | 51 | 1011.7 |
| 20260503174527 | 21 | 99 | 1.6 | 6.4 | 0.00 | 0.00 | 0.00 | 51 | 1011.7 |
| 20260503174006 | 20 | 83 | 1.6 | 8.0 | 0.00 | 0.00 | 0.00 | 54 | 1011.7 |
| 20260503173513 | 20 | 51 | 3.2 | 8.0 | 0.00 | 0.00 | 0.00 | 55 | 1011.7 |
| 20260503173029 | 19 | 60 | 1.6 | 9.7 | 0.00 | 0.00 | 0.00 | 59 | 1011.8 |
| 20260503172509 | 19 | 40 | 4.8 | 11.3 | 0.00 | 0.00 | 0.00 | 57 | 1011.8 |
| 20260503172008 | 19 | 83 | 3.2 | 14.5 | 0.00 | 0.00 | 0.00 | 57 | 1011.8 |
| 20260503171526 | 19 | 70 | 8.0 | 14.5 | 0.00 | 0.00 | 0.00 | 57 | 1011.8 |
| 20260503171008 | 19 | 63 | 8.0 | 14.5 | 0.00 | 0.00 | 0.00 | 56 | 1011.8 |
| 20260503170507 | 19 | 94 | 6.4 | 17.7 | 0.00 | 0.00 | 0.00 | 56 | 1011.8 |
| 20260503151010 | 18 | 56 | 12.9 | 25.7 | 0.00 | 0.00 | 0.00 | 55 | 1012.7 |
| 20260503150510 | 18 | 55 | 17.7 | 25.7 | 0.00 | 0.00 | 0.00 | 57 | 1012.6 |
| 20260503131003 | 15 | 115 | 17.7 | 29.0 | 0.00 | 0.00 | 0.00 | 70 | 1012.4 |
| 20260503130506 | 15 | 80 | 16.1 | 29.0 | 0.00 | 0.00 | 0.00 | 69 | 1012.4 |
| 20260503110506 | 16 | 44 | 6.4 | 27.4 | 0.00 | 0.00 | 0.00 | 63 | 1012.8 |
| 20260503090506 | 17 | 73 | 6.4 | 22.5 | 0.00 | 0.00 | 0.00 | 70 | 1012.8 |
| 20260503081518 | 16 | 61 | 4.8 | 17.7 | 0.00 | 0.00 | 0.00 | 80 | 1013.0 |
| 20260503081010 | 16 | 85 | 6.4 | 19.3 | 0.00 | 0.00 | 0.00 | 78 | 1013.0 |
| 20260503080509 | 16 | 335 | 8.0 | 19.3 | 0.00 | 0.00 | 0.00 | 79 | 1013.0 |
| 20260503072504 | 13 | 219 | 3.2 | 6.4 | 0.00 | 0.00 | 0.00 | 91 | 1013.1 |
| 20260503072007 | 13 | 254 | 3.2 | 8.0 | 0.00 | 0.00 | 0.00 | 91 | 1013.1 |
| 20260503071518 | 14 | 220 | 4.8 | 8.0 | 0.00 | 0.00 | 0.00 | 91 | 1013.1 |
| 20260503071004 | 14 | 209 | 1.6 | 4.8 | 0.00 | 0.00 | 0.00 | 90 | 1013.0 |
| 20260503070504 | 14 | 236 | 3.2 | 4.8 | 0.00 | 0.00 | 0.00 | 90 | 1013.1 |
| 20260503055006 | 15 | 104 | 0.0 | 3.2 | 0.00 | 0.00 | 0.00 | 87 | 1013.4 |
| 20260503054516 | 15 | 96 | 1.6 | 3.2 | 0.00 | 0.00 | 0.00 | 85 | 1013.4 |
| 20260503054003 | 16 | 117 | 0.0 | 3.2 | 0.00 | 0.00 | 0.00 | 85 | 1013.4 |
| 20260503053505 | 16 | 212 | 0.0 | 3.2 | 0.00 | 0.00 | 0.00 | 84 | 1013.5 |
| 20260503053019 | 16 | 240 | 1.6 | 3.2 | 0.00 | 0.00 | 0.00 | 84 | 1013.5 |
| 20260503052503 | 16 | 46 | 0.0 | 3.2 | 0.00 | 0.00 | 0.00 | 85 | 1013.6 |
| 20260503052005 | 16 | 308 | 1.6 | 3.2 | 0.00 | 0.00 | 0.00 | 85 | 1013.6 |
| 20260503051513 | 16 | 157 | 0.0 | 3.2 | 0.00 | 0.00 | 0.00 | 86 | 1013.6 |
| 20260503051003 | 16 | 333 | 0.0 | 4.8 | 0.00 | 0.00 | 0.00 | 85 | 1013.7 |
| 20260503050506 | 16 | 235 | 3.2 | 4.8 | 0.00 | 0.00 | 0.00 | 86 | 1013.6 |
| 20260503050021 | 16 | 229 | 3.2 | 4.8 | 0.00 | 0.00 | 0.00 | 86 | 1013.5 |
| 20260503045507 | 16 | 232 | 3.2 | 4.8 | 0.00 | 0.00 | 0.00 | 85 | 1013.5 |
| 20260503045009 | 16 | 261 | 3.2 | 4.8 | 0.00 | 0.00 | 0.00 | 85 | 1013.6 |
| 20260503044520 | 16 | 271 | 3.2 | 4.8 | 0.00 | 0.00 | 0.00 | 85 | 1013.6 |
| 20260503044008 | 17 | 265 | 3.2 | 4.8 | 0.00 | 0.00 | 0.00 | 85 | 1013.5 |
| 20260503043506 | 17 | 271 | 1.6 | 4.8 | 0.00 | 0.00 | 0.00 | 85 | 1013.5 |
| 20260503043018 | 17 | 265 | 1.6 | 4.8 | 0.00 | 0.00 | 0.00 | 85 | 1013.4 |
| 20260503042506 | 17 | 249 | 1.6 | 3.2 | 0.00 | 0.00 | 0.00 | 84 | 1013.4 |
| 20260503042006 | 17 | 241 | 1.6 | 3.2 | 0.00 | 0.00 | 0.00 | 84 | 1013.2 |
| 20260503041525 | 17 | 279 | 1.6 | 3.2 | 0.00 | 0.00 | 0.00 | 84 | 1013.1 |
| 20260503041002 | 17 | 244 | 1.6 | 3.2 | 0.00 | 0.00 | 0.00 | 83 | 1013.1 |
| 20260503040505 | 17 | 261 | 1.6 | 4.8 | 0.00 | 0.00 | 0.00 | 83 | 1012.8 |
| 20260503040017 | 17 | 262 | 3.2 | 4.8 | 0.00 | 0.00 | 0.00 | 83 | 1012.7 |
| 20260503035502 | 18 | 261 | 3.2 | 4.8 | 0.00 | 0.00 | 0.00 | 82 | 1012.6 |
| 20260503035006 | 18 | 247 | 1.6 | 3.2 | 0.00 | 0.00 | 0.00 | 81 | 1012.5 |
| 20260503034518 | 18 | 221 | 3.2 | 4.8 | 0.00 | 0.00 | 0.00 | 81 | 1012.4 |
| 20260503034010 | 18 | 232 | 3.2 | 4.8 | 0.00 | 0.00 | 0.00 | 80 | 1012.4 |
| 20260503033507 | 18 | 225 | 3.2 | 4.8 | 0.00 | 0.00 | 0.00 | 80 | 1012.3 |
| 20260503033013 | 18 | 210 | 3.2 | 4.8 | 0.00 | 0.00 | 0.00 | 79 | 1012.0 |
| 20260503032506 | 18 | 231 | 3.2 | 4.8 | 0.00 | 0.00 | 0.00 | 79 | 1011.8 |
| 20260503032010 | 19 | 251 | 3.2 | 4.8 | 0.00 | 0.00 | 0.00 | 79 | 1011.8 |
| 20260503031507 | 19 | 230 | 3.2 | 4.8 | 0.00 | 0.00 | 0.00 | 79 | 1011.6 |
| 20260503031006 | 20 | 242 | 3.2 | 4.8 | 0.00 | 0.00 | 0.00 | 79 | 1011.5 |
| 20260503030506 | 20 | 236 | 3.2 | 4.8 | 0.00 | 0.00 | 0.00 | 78 | 1011.4 |
| 20260503030020 | 20 | 229 | 3.2 | 4.8 | 0.00 | 0.00 | 0.00 | 77 | 1011.3 |
| 20260503025503 | 20 | 262 | 3.2 | 4.8 | 0.00 | 0.00 | 0.00 | 77 | 1011.1 |
| 20260503025007 | 20 | 259 | 1.6 | 3.2 | 0.00 | 0.00 | 0.00 | 76 | 1011.1 |
| 20260503024518 | 20 | 257 | 1.6 | 3.2 | 0.00 | 0.00 | 0.00 | 75 | 1011.0 |
| 20260503024010 | 21 | 261 | 1.6 | 3.2 | 0.00 | 0.00 | 0.00 | 74 | 1011.0 |
| 20260503023510 | 21 | 243 | 1.6 | 3.2 | 0.00 | 0.00 | 0.00 | 72 | 1010.9 |
| 20260503023013 | 21 | 242 | 1.6 | 3.2 | 0.00 | 0.00 | 0.00 | 71 | 1010.9 |
| 20260503022507 | 21 | 260 | 1.6 | 3.2 | 0.00 | 0.00 | 0.00 | 69 | 1010.8 |
| 20260503022005 | 21 | 213 | 0.0 | 3.2 | 0.00 | 0.00 | 0.00 | 67 | 1010.8 |
| 20260503021522 | 22 | 169 | 0.0 | 3.2 | 0.00 | 0.00 | 0.00 | 66 | 1010.8 |
| 20260503021010 | 22 | 267 | 1.6 | 3.2 | 0.00 | 0.00 | 0.00 | 65 | 1010.8 |
| 20260503020508 | 22 | 276 | 1.6 | 3.2 | 0.00 | 0.00 | 0.00 | 65 | 1010.8 |
| 20260503020020 | 22 | 257 | 1.6 | 3.2 | 0.00 | 0.00 | 0.00 | 67 | 1010.8 |
| 20260503015508 | 22 | 17 | 0.0 | 3.2 | 0.00 | 0.00 | 0.00 | 64 | 1010.8 |
| 20260503015010 | 22 | 17 | 0.0 | 3.2 | 0.00 | 0.00 | 0.00 | 60 | 1010.8 |
| 20260503014510 | 23 | 138 | 0.0 | 3.2 | 0.00 | 0.00 | 0.00 | 61 | 1010.8 |
| 20260503014009 | 23 | 148 | 0.0 | 3.2 | 0.00 | 0.00 | 0.00 | 61 | 1010.8 |
| 20260503013507 | 23 | 103 | 0.0 | 3.2 | 0.00 | 0.00 | 0.00 | 60 | 1010.8 |
| 20260503013017 | 22 | 86 | 0.0 | 3.2 | 0.00 | 0.00 | 0.00 | 61 | 1010.8 |
| 20260503012508 | 23 | 305 | 0.0 | 4.8 | 0.00 | 0.00 | 0.00 | 61 | 1010.8 |
| 20260503012009 | 23 | 13 | 0.0 | 4.8 | 0.00 | 0.00 | 0.00 | 60 | 1010.7 |
| 20260503011515 | 23 | 254 | 0.0 | 4.8 | 0.00 | 0.00 | 0.00 | 61 | 1010.7 |
| 20260503011003 | 23 | 84 | 0.0 | 4.8 | 0.00 | 0.00 | 0.00 | 60 | 1010.8 |
| 20260503010508 | 22 | 127 | 1.6 | 4.8 | 0.00 | 0.00 | 0.00 | 59 | 1010.7 |
| 20260503010019 | 22 | 62 | 1.6 | 3.2 | 0.00 | 0.00 | 0.00 | 60 | 1010.7 |
| 20260503005511 | 22 | 5 | 0.0 | 4.8 | 0.00 | 0.00 | 0.00 | 60 | 1010.7 |
| 20260503005007 | 22 | 65 | 1.6 | 4.8 | 0.00 | 0.00 | 0.00 | 60 | 1010.8 |
| 20260503004518 | 22 | 64 | 0.0 | 4.8 | 0.00 | 0.00 | 0.00 | 61 | 1010.8 |
| 20260503004013 | 22 | 68 | 1.6 | 3.2 | 0.00 | 0.00 | 0.00 | 61 | 1010.8 |
| 20260503003506 | 22 | 282 | 0.0 | 4.8 | 0.00 | 0.00 | 0.00 | 61 | 1010.7 |
| 20260503003016 | 22 | 76 | 0.0 | 4.8 | 0.00 | 0.00 | 0.00 | 61 | 1010.8 |
| 20260503002507 | 22 | 101 | 1.6 | 6.4 | 0.00 | 0.00 | 0.00 | 62 | 1010.8 |
| 20260503002007 | 22 | 67 | 1.6 | 6.4 | 0.00 | 0.00 | 0.00 | 61 | 1010.7 |
| 20260503001514 | 22 | 127 | 1.6 | 6.4 | 0.00 | 0.00 | 0.00 | 61 | 1010.7 |
| 20260503001007 | 22 | 104 | 1.6 | 8.0 | 0.00 | 0.00 | 0.00 | 61 | 1010.7 |
| 20260503000507 | 22 | 186 | 3.2 | 8.0 | 0.00 | 0.00 | 0.00 | 62 | 1010.7 |
| 20260503000018 | 22 | 10 | 1.6 | 6.4 | 0.00 | 0.00 | 0.00 | 62 | 1010.8 |
| 20260502235507 | 22 | 128 | 3.2 | 6.4 | 0.00 | 0.00 | 0.00 | 62 | 1010.8 |
| 20260502235006 | 22 | 175 | 0.0 | 6.4 | 0.00 | 0.00 | 0.00 | 63 | 1010.8 |
| 20260502234526 | 22 | 137 | 1.6 | 8.0 | 0.00 | 0.00 | 0.00 | 63 | 1010.9 |
| 20260502234011 | 22 | 71 | 1.6 | 8.0 | 0.00 | 0.00 | 0.00 | 62 | 1011.0 |
| 20260502233516 | 22 | 204 | 0.0 | 6.4 | 0.00 | 0.00 | 0.00 | 62 | 1011.0 |
| 20260502233018 | 22 | 93 | 1.6 | 6.4 | 0.00 | 0.00 | 0.00 | 62 | 1011.1 |
| 20260502232510 | 21 | 88 | 3.2 | 6.4 | 0.00 | 0.00 | 0.00 | 64 | 1011.1 |
| 20260502232011 | 21 | 21 | 3.2 | 6.4 | 0.00 | 0.00 | 0.00 | 62 | 1011.1 |
| 20260502231517 | 21 | 99 | 1.6 | 4.8 | 0.00 | 0.00 | 0.00 | 62 | 1011.3 |
| 20260502231008 | 21 | 111 | 1.6 | 6.4 | 0.00 | 0.00 | 0.00 | 63 | 1011.3 |
| 20260502230506 | 21 | 49 | 1.6 | 6.4 | 0.00 | 0.00 | 0.00 | 63 | 1011.3 |
| 20260502230023 | 21 | 105 | 1.6 | 6.4 | 0.00 | 0.00 | 0.00 | 62 | 1011.4 |
| 20260502225507 | 22 | 107 | 3.2 | 6.4 | 0.00 | 0.00 | 0.00 | 61 | 1011.5 |
| 20260502225012 | 22 | 111 | 1.6 | 6.4 | 0.00 | 0.00 | 0.00 | 62 | 1011.6 |
| 20260502224518 | 22 | 212 | 1.6 | 8.0 | 0.00 | 0.00 | 0.00 | 60 | 1011.6 |
| 20260502224007 | 22 | 186 | 1.6 | 8.0 | 0.00 | 0.00 | 0.00 | 62 | 1011.7 |
| 20260502223508 | 21 | 218 | 3.2 | 9.7 | 0.00 | 0.00 | 0.00 | 62 | 1011.6 |
| 20260502223028 | 21 | 115 | 1.6 | 9.7 | 0.00 | 0.00 | 0.00 | 65 | 1011.7 |
| 20260502222509 | 21 | 117 | 3.2 | 8.0 | 0.00 | 0.00 | 0.00 | 63 | 1011.8 |
| 20260502222010 | 21 | 154 | 4.8 | 9.7 | 0.00 | 0.00 | 0.00 | 65 | 1011.8 |
| 20260502221510 | 21 | 82 | 4.8 | 9.7 | 0.00 | 0.00 | 0.00 | 63 | 1011.9 |
| 20260502221005 | 21 | 65 | 3.2 | 9.7 | 0.00 | 0.00 | 0.00 | 62 | 1012.0 |
| 20260502220504 | 21 | 94 | 3.2 | 8.0 | 0.00 | 0.00 | 0.00 | 62 | 1012.1 |
| 20260502220008 | 21 | 115 | 3.2 | 11.3 | 0.00 | 0.00 | 0.00 | 63 | 1012.2 |
| 20260502215505 | 21 | 113 | 4.8 | 9.7 | 0.00 | 0.00 | 0.00 | 64 | 1012.3 |
| 20260502215002 | 21 | 207 | 3.2 | 6.4 | 0.00 | 0.00 | 0.00 | 64 | 1012.4 |
| 20260502214507 | 21 | 61 | 3.2 | 8.0 | 0.00 | 0.00 | 0.00 | 63 | 1012.5 |
| 20260502214007 | 20 | 131 | 1.6 | 11.3 | 0.00 | 0.00 | 0.00 | 67 | 1012.5 |
| 20260502213504 | 20 | 107 | 4.8 | 9.7 | 0.00 | 0.00 | 0.00 | 65 | 1012.5 |
| 20260502213004 | 20 | 141 | 1.6 | 9.7 | 0.00 | 0.00 | 0.00 | 65 | 1012.6 |
| 20260502212506 | 20 | 117 | 3.2 | 9.7 | 0.00 | 0.00 | 0.00 | 68 | 1012.7 |
| 20260502212003 | 20 | 138 | 1.6 | 9.7 | 0.00 | 0.00 | 0.00 | 70 | 1012.8 |
| 20260502211517 | 19 | 87 | 3.2 | 9.7 | 0.00 | 0.00 | 0.00 | 67 | 1012.8 |